User: anonymous   Login
Location: Austin
(30.3000°N, 97.7500°W)
Time: 22:34:01
(UTC-06:00)
Language:

Aureole 3 Rocket - Orbit

View from above orbital plane
View from above orbital plane
View from above satellite
View from above satellite

Ground track
Ground track

The orbit data is extracted from the following two-line orbital elements,

1 12849U 81094B   24057.54007171  .00002816  00000-0  26072-3 0  9996
2 12849  82.4873  87.3253 0885891 310.3048  42.3845 13.53995067 72131
Epoch (UTC): 26 February 2024 12:57:42
Eccentricity: 0.0885891
inclination: 82.4873°
perigee height: 399 km
apogee height: 1716 km
right ascension of ascending node: 87.3253°
argument of perigee: 310.3048°
revolutions per day: 13.53995067
mean anomaly at epoch: 42.3845°
orbit number at epoch: 7213

The dashed part of the orbit path shows where the satellite is in the earth's shadow,  

DLR